Location: Gilevgi
(36.8751°N, 30.0581°E)
Time: 03:34:02
(UTC+00:00)

Aureole 1 Rocket - Pass Details

Date: 11 December 2025
Orbit: 372 x 1168 km, 73.9° (Epoch: 13 January)

Event Time Altitude Azimuth Distance (km) Brightness Sun altitude
Rises 15:33:24 0° 179° (S) 2,590 6.5 -9.9°
Reaches altitude 10° 15:35:23 10° 172° (S) 1,808 5.6 -10.2°
Maximum altitude 15:39:12 43° 101° (E) 891 3.5 -11.0°
Drops below altitude 10° 15:43:59 10° 30° (NNE) 2,278 5.5 -11.9°
Enters shadow 15:44:36 - 28° (NNE) 2,515 5.7 -12.0°
